[[{"header":{"parameterUnit":"m.s-1","parameterCategory":1,"la1":30.2991,"la2":30.254,"lo1":-89.0895,"lo2":-89.0444,"dy":0.0017,"dx":0.0017,"nx":28,"ny":28,"refTime":"2023-11-06T03:00:00:Z","depth":0,"parameterNumber":2,"parameterNumberName":"U-component_of_WINDS"},"data":[0,0,0,0,0,0,0,0,0,0,0,0,0,0,0,0,0,0,0,0,0,0,0,0,0,0,0,0,0,0,0,0,0,0,0,0,0,0,0,0,0,0,0,0,0,0,0,0,0,0,0,0,0,0,0,0,0,0,0.6656,0.6657,0,0.671,0.6711,0.6712,0.6712,0.6711,0.671,0.671,0.6766,0.6768,0.677,0,0,0,0,0,0,0,0,0,0,0,0,0,0.6554,0.6556,0.6656,0.6657,0.6658,0.671,0.6711,0.6712,0.6712,0.6711,0.671,0.6709,0.6765,0.6768,0.677,0,0,0,0,0,0,0,0,0,0,0,0,0,0.6602,0.6557,0.6656,0.6664,0.6665,0.671,0.6711,0.6712,0.6712,0.6711,0.671,0.6709,0.6764,0.6768,0.6771,0.6811,0,0,0.6781,0.6782,0,0,0,0,0,0,0,0,0.66,0.6606,0.6662,0.6664,0.6665,0.6703,0.6696,0.6745,0.6712,0.6694,0.671,0.6709,0.6746,0.6751,0.6763,0.6814,0.6817,0.6781,0.6783,0.6784,0.6785,0,0,0,0,0,0,0,0.6596,0.6604,0.6678,0.6663,0.6665,0.6665,0.6671,0.6705,0.6725,0.6696,0.6696,0.6702,0.6747,0.676,0.6764,0.6817,0.6781,0.6784,0.6786,0.6787,0.6905,0.6906,0,0,0,0,0,0,0.6591,0.6601,0.6676,0.6679,0.6629,0.6668,0.6674,0.6692,0.6725,0.6729,0.6703,0.6702,0.6755,0.6761,0.6766,0.6817,0.6784,0.6787,0.6789,0.6904,0.6905,0.6907,0,0,0,0,0,0,0.6589,0.6598,0.6674,0.664,0.665,0.6671,0.6691,0.6694,0.6707,0.6731,0.6734,0.6713,0.6754,0.6762,0.68,0.6819,0.6789,0.6792,0.6903,0.6904,0.6906,0.6917,0,0,0,0,0,0,0.6586,0.6597,0.6613,0.6641,0.6652,0.6707,0.6692,0.6696,0.6713,0.6712,0.6741,0.6745,0.6754,0.6796,0.6804,0.6823,0.6794,0.6901,0.6903,0.6905,0.6916,0.6919,0.6923,0,0,0,0,0,0.6583,0.6614,0.6613,0.6623,0.6671,0.6708,0.6714,0.6724,0.6714,0.673,0.6745,0.6744,0.6815,0.6799,0.6808,0.6829,0.69,0.6903,0.6905,0.6914,0.6919,0.6923,0,0,0,0,0,0,0.6588,0.6618,0.6618,0.6659,0.6681,0.6708,0.6728,0.6729,0.6754,0.6752,0.6764,0.677,0.6809,0.6823,0.6804,0.687,0.6856,0.6861,0.686,0.6865,0.6868,0.6864,0.6797,0,0,0,0,0,0.6593,0.662,0.6645,0.6679,0.669,0.6707,0.6723,0.6729,0.6752,0.6762,0.6779,0.6802,0.683,0.6848,0.6875,0.6917,0.6924,0.6936,0.6939,0.6942,0.6946,0.6971,0.6976,0.6916,0.6916,0.6916,0,0,0.6606,0.6626,0.6642,0.668,0.6698,0.6726,0.6715,0.6744,0.6765,0.6766,0.6804,0.6818,0.6844,0.6885,0.6904,0.6897,0.6965,0.6946,0.6948,0.695,0.6974,0.698,0.6985,0.6918,0.6917,0.6917,0,0,0.6643,0.666,0.669,0.6708,0.6735,0.6747,0.6754,0.6781,0.679,0.6828,0.6829,0.6854,0.6902,0.692,0.6936,0.6981,0.6981,0.6989,0.7008,0.7032,0.7036,0.7041,0.7057,0.7063,0.6993,0.6993,0.6993,0,0.6655,0.6696,0.6706,0.6736,0.6753,0.6755,0.6786,0.6803,0.6837,0.6849,0.6842,0.6902,0.6919,0.6965,0.6976,0.6988,0.6997,0.6986,0.7035,0.7039,0.7043,0.7059,0.7065,0.6994,0.6994,0.6994,0.6994,0,0.671,0.6739,0.676,0.6793,0.6813,0.6843,0.6858,0.6876,0.6881,0.6893,0.6932,0.6953,0.6984,0.6996,0.7,0.7042,0.7037,0.7032,0.7019,0.705,0.7065,0.7071,0.6995,0.6995,0.6994,0.6994,0,0,0.6751,0.679,0.6797,0.6812,0.6842,0.6865,0.6896,0.6926,0.6942,0.6966,0.6992,0.7032,0.7028,0.7046,0.7052,0.7073,0.7107,0.7065,0.7066,0.7073,0.7156,0.7159,0.7166,0.7107,0.7108,0.7109,0.7153,0,0.6792,0.6846,0.6856,0.6903,0.693,0.6933,0.6959,0.6981,0.6993,0.7018,0.7032,0.706,0.7052,0.7063,0.7083,0.7099,0.7124,0.7096,0.7132,0.7134,0.7126,0.7174,0.7178,0.7219,0.7159,0.716,0.7161,0,0.6846,0.6871,0.6921,0.6948,0.6959,0.6983,0.7012,0.7036,0.706,0.7068,0.7088,0.7093,0.7125,0.711,0.7155,0.7135,0.7151,0.7161,0.7163,0.7167,0.7149,0.718,0.7232,0.7238,0.717,0.717,0.7169,0,0.6871,0.6918,0.6954,0.6967,0.6999,0.7015,0.703,0.7053,0.7071,0.7096,0.7108,0.7137,0.7153,0.7176,0.7188,0.7176,0.7232,0.7218,0.724,0.724,0.7252,0.7251,0.7308,0.7262,0.7262,0.7261,0.7261,0,0.6915,0.6946,0.6966,0.6988,0.7022,0.7034,0.7068,0.7082,0.7103,0.7128,0.7132,0.7156,0.717,0.7196,0.7206,0.7242,0.725,0.7257,0.7259,0.7257,0.7256,0.7267,0.7265,0.7263,0.7263,0.7262,0.7262,0,0.695,0.6964,0.7004,0.7031,0.7039,0.7063,0.7086,0.7108,0.712,0.7153,0.7161,0.718,0.7211,0.7226,0.7264,0.7271,0.7312,0.7312,0.7303,0.7304,0.7326,0.7324,0.7392,0.7402,0.7349,0.7349,0.735,0,0.6977,0.7001,0.7031,0.7048,0.7062,0.709,0.7108,0.712,0.7139,0.7169,0.7188,0.7219,0.7244,0.7294,0.7311,0.7341,0.7342,0.7364,0.7347,0.7343,0.7343,0.7341,0.7344,0.7367,0.7368,0.7368,0.7368,0,0.7024,0.703,0.7056,0.7085,0.7107,0.713,0.7153,0.7167,0.7183,0.7204,0.7235,0.7255,0.7294,0.7325,0.7356,0.7371,0.7373,0.7374,0.7381,0.7378,0.7373,0.7376,0.7312,0.7372,0.7372,0.7372,0.7371,0.7371,0.7056,0.7078,0.7102,0.7131,0.7149,0.7171,0.7193,0.7208,0.7235,0.7267,0.7273,0.7307,0.7331,0.7373,0.7389,0.7416,0.7411,0.742,0.7423,0.7425,0.7426,0.7368,0.7421,0.7421,0.7421,0.7421,0.7421,0,0.7104,0.712,0.7146,0.7178,0.7201,0.7201,0.7226,0.7245,0.7275,0.7298,0.7323,0.7359,0.7389,0.741,0.744,0.7458,0.746,0.7466,0.7465,0.7468,0.7429,0.742,0.7464,0.7464,0.7464,0.7464,0.7464,0.7464,0.7131,0.7167,0.7176,0.7222,0.7238,0.7271,0.7285,0.7305,0.7323,0.7364,0.7389,0.7402,0.7424,0.7456,0.7484,0.7489,0.7501,0.7507,0.7512,0.7475,0.7471,0.7467,0.7458,0.7509,0.7509,0.7549,0.755,0.755]},{"header":{"parameterUnit":"m.s-1","parameterCategory":1,"la1":30.2991,"la2":30.254,"lo1":-89.0895,"lo2":-89.0444,"dy":0.0017,"dx":0.0017,"nx":28,"ny":28,"refTime":"2023-11-06T03:00:00:Z","depth":0,"parameterNumber":3,"parameterNumberName":"V-component_of_WINDS"},"data":[0,0,0,0,0,0,0,0,0,0,0,0,0,0,0,0,0,0,0,0,0,0,0,0,0,0,0,0,0,0,0,0,0,0,0,0,0,0,0,0,0,0,0,0,0,0,0,0,0,0,0,0,0,0,0,0,0,0,-0.2466,-0.2466,0,-0.2463,-0.2463,-0.2463,-0.2465,-0.2466,-0.2466,-0.2466,-0.2463,-0.2463,-0.2462,0,0,0,0,0,0,0,0,0,0,0,0,0,-0.2473,-0.2473,-0.2466,-0.2466,-0.2466,-0.2463,-0.2463,-0.2463,-0.2465,-0.2466,-0.2466,-0.2466,-0.2463,-0.2463,-0.2462,0,0,0,0,0,0,0,0,0,0,0,0,0,-0.247,-0.2473,-0.2466,-0.2467,-0.2467,-0.2463,-0.2463,-0.2463,-0.2465,-0.2466,-0.2466,-0.2466,-0.2463,-0.2463,-0.2462,-0.2458,0,0,-0.2462,-0.2461,0,0,0,0,0,0,0,0,-0.247,-0.247,-0.2467,-0.2467,-0.2467,-0.2465,-0.2465,-0.2461,-0.2465,-0.2466,-0.2466,-0.2466,-0.2463,-0.2463,-0.2462,-0.2458,-0.2458,-0.2462,-0.2461,-0.2461,-0.2461,0,0,0,0,0,0,0,-0.247,-0.247,-0.2465,-0.2467,-0.2467,-0.2467,-0.2467,-0.2464,-0.2464,-0.2466,-0.2466,-0.2466,-0.2463,-0.2462,-0.2462,-0.2458,-0.2462,-0.2461,-0.2461,-0.2461,-0.2449,-0.2449,0,0,0,0,0,0,-0.247,-0.247,-0.2465,-0.2465,-0.2469,-0.2467,-0.2467,-0.2465,-0.2464,-0.2464,-0.2466,-0.2466,-0.2463,-0.2462,-0.2462,-0.2456,-0.2461,-0.2461,-0.2461,-0.2449,-0.2449,-0.2449,0,0,0,0,0,0,-0.2471,-0.247,-0.2465,-0.2467,-0.2467,-0.2467,-0.2465,-0.2465,-0.2464,-0.2464,-0.2464,-0.2465,-0.2463,-0.2462,-0.2459,-0.2456,-0.2461,-0.2461,-0.2449,-0.2449,-0.2449,-0.2445,0,0,0,0,0,0,-0.2471,-0.247,-0.2468,-0.2467,-0.2467,-0.2462,-0.2465,-0.2465,-0.2464,-0.2464,-0.2463,-0.2463,-0.2463,-0.2459,-0.2459,-0.2456,-0.2461,-0.245,-0.2449,-0.2449,-0.2446,-0.2445,-0.2445,0,0,0,0,0,-0.2471,-0.2468,-0.2468,-0.2468,-0.2465,-0.2462,-0.2462,-0.2462,-0.2464,-0.2462,-0.2461,-0.2463,-0.2457,-0.2459,-0.2458,-0.2456,-0.245,-0.2449,-0.2449,-0.2446,-0.2445,-0.2445,0,0,0,0,0,0,-0.2468,-0.2468,-0.2468,-0.2465,-0.2463,-0.2462,-0.246,-0.2461,-0.2459,-0.246,-0.246,-0.246,-0.2456,-0.2456,-0.2458,-0.2451,-0.2454,-0.2453,-0.2452,-0.2451,-0.245,-0.245,-0.246,0,0,0,0,0,-0.2467,-0.2465,-0.2465,-0.2461,-0.2461,-0.2461,-0.2459,-0.246,-0.2458,-0.2458,-0.2457,-0.2456,-0.2454,-0.2452,-0.245,-0.2446,-0.2445,-0.2444,-0.2443,-0.2443,-0.2442,-0.2439,-0.2438,-0.2448,-0.2448,-0.2448,0,0,-0.2465,-0.2464,-0.2463,-0.2461,-0.246,-0.2457,-0.246,-0.2458,-0.2456,-0.2458,-0.2454,-0.2454,-0.2452,-0.2448,-0.2446,-0.2447,-0.2439,-0.2442,-0.2442,-0.2441,-0.2439,-0.2438,-0.2437,-0.2447,-0.2447,-0.2447,0,0,-0.246,-0.2459,-0.2456,-0.2455,-0.2454,-0.2454,-0.2453,-0.2452,-0.2452,-0.2448,-0.245,-0.2447,-0.2444,-0.2442,-0.2441,-0.2435,-0.2436,-0.2435,-0.2431,-0.2429,-0.2428,-0.2427,-0.2425,-0.2424,-0.2434,-0.2434,-0.2434,0,-0.2458,-0.2454,-0.2455,-0.2452,-0.2451,-0.2452,-0.2449,-0.2448,-0.2446,-0.2445,-0.2447,-0.2442,-0.2441,-0.2436,-0.2435,-0.2434,-0.2433,-0.2435,-0.2428,-0.2427,-0.2427,-0.2425,-0.2424,-0.2434,-0.2434,-0.2434,-0.2434,0,-0.2451,-0.2448,-0.2446,-0.2444,-0.2443,-0.244,-0.244,-0.2438,-0.2439,-0.2438,-0.2435,-0.2434,-0.2431,-0.243,-0.2431,-0.2426,-0.2427,-0.2428,-0.2431,-0.2426,-0.2424,-0.2423,-0.2434,-0.2434,-0.2434,-0.2434,0,0,-0.2444,-0.2442,-0.2441,-0.244,-0.2439,-0.2437,-0.2434,-0.2432,-0.243,-0.2429,-0.2426,-0.2423,-0.2424,-0.2423,-0.2423,-0.2421,-0.2416,-0.2422,-0.2422,-0.2421,-0.241,-0.2408,-0.2407,-0.2416,-0.2416,-0.2416,-0.241,0,-0.2438,-0.2433,-0.2434,-0.2429,-0.2426,-0.2428,-0.2425,-0.2424,-0.2423,-0.2421,-0.2421,-0.2418,-0.242,-0.242,-0.2417,-0.2417,-0.2413,-0.2417,-0.2414,-0.2414,-0.2414,-0.2406,-0.2405,-0.2399,-0.2409,-0.2409,-0.2409,0,-0.2431,-0.2429,-0.2424,-0.2423,-0.2422,-0.2419,-0.2417,-0.2415,-0.2414,-0.2414,-0.2412,-0.2413,-0.241,-0.2412,-0.2408,-0.241,-0.2409,-0.2408,-0.2408,-0.2408,-0.2411,-0.2405,-0.2397,-0.2396,-0.2407,-0.2407,-0.2407,0,-0.2426,-0.2423,-0.2419,-0.2418,-0.2416,-0.2415,-0.2414,-0.2412,-0.2411,-0.2409,-0.2408,-0.2406,-0.2404,-0.2402,-0.2402,-0.2404,-0.2398,-0.24,-0.2397,-0.2397,-0.2395,-0.2396,-0.2387,-0.2395,-0.2395,-0.2395,-0.2395,0,-0.242,-0.2417,-0.2417,-0.2414,-0.2411,-0.2411,-0.2407,-0.2407,-0.2405,-0.2403,-0.2404,-0.2402,-0.2402,-0.2399,-0.2399,-0.2395,-0.2395,-0.2394,-0.2394,-0.2394,-0.2394,-0.2393,-0.2393,-0.2395,-0.2395,-0.2395,-0.2395,0,-0.2414,-0.2413,-0.241,-0.2408,-0.2408,-0.2405,-0.2404,-0.2402,-0.2401,-0.2398,-0.2397,-0.2397,-0.2394,-0.2394,-0.2391,-0.239,-0.2386,-0.2386,-0.2386,-0.2386,-0.2383,-0.2383,-0.2372,-0.2371,-0.2381,-0.2381,-0.238,0,-0.2409,-0.2407,-0.2405,-0.2404,-0.2403,-0.24,-0.2399,-0.2399,-0.2397,-0.2395,-0.2393,-0.239,-0.2388,-0.2383,-0.2382,-0.238,-0.238,-0.2377,-0.238,-0.238,-0.238,-0.238,-0.2379,-0.2376,-0.2376,-0.2376,-0.2376,0,-0.2402,-0.2402,-0.24,-0.2397,-0.2395,-0.2393,-0.2392,-0.239,-0.239,-0.2388,-0.2385,-0.2384,-0.238,-0.2377,-0.2375,-0.2374,-0.2375,-0.2375,-0.2374,-0.2373,-0.2373,-0.2373,-0.2384,-0.2375,-0.2375,-0.2375,-0.2375,-0.2375,-0.2396,-0.2394,-0.2392,-0.239,-0.2388,-0.2387,-0.2384,-0.2384,-0.2381,-0.2378,-0.2379,-0.2375,-0.2374,-0.237,-0.2369,-0.2366,-0.2368,-0.2366,-0.2366,-0.2365,-0.2365,-0.2374,-0.2366,-0.2366,-0.2366,-0.2366,-0.2366,0,-0.2388,-0.2387,-0.2385,-0.2382,-0.238,-0.2381,-0.238,-0.2378,-0.2375,-0.2373,-0.2371,-0.2367,-0.2364,-0.2363,-0.236,-0.2358,-0.2359,-0.2358,-0.2358,-0.2357,-0.2364,-0.2365,-0.2357,-0.2357,-0.2357,-0.2357,-0.2357,-0.2357,-0.2384,-0.238,-0.238,-0.2375,-0.2374,-0.2371,-0.237,-0.2368,-0.2367,-0.2363,-0.236,-0.236,-0.2358,-0.2355,-0.2352,-0.2352,-0.2351,-0.235,-0.235,-0.2356,-0.2357,-0.2358,-0.2359,-0.2349,-0.2349,-0.2343,-0.2343,-0.2343]}]]